Hourly Data Report for December 11, 2002

TORONTO CITY
ONTARIO

43°40'00.000" N
79°24'00.000" W
112.50 m
6158355
71508
XTO

Download Data

Hourly Data (December 2002)
Hourly Data Report for December 11, 2002
TIME
LST
Temp Definition
°C
Dew Point Definition
°C
Rel Hum Definition
%
Precip. Amount Definition
mm

Wind Dir Definition
10's deg

Wind Spd Definition
km/h
Visibility Definition
km
Stn Press Definition
kPa
Hmdx Definition


Wind Chill Definition


Weather Definition


00:00 0.4 -2.6 80   LegendMM LegendMM LegendMM 100.68     LegendNANA
01:00 -0.5 -2.8 84   LegendMM LegendMM LegendMM 100.63     LegendNANA
02:00 -0.9 -3.0 86   LegendMM LegendMM LegendMM 100.61     LegendNANA
03:00 -1.1 -3.2 86   LegendMM LegendMM LegendMM 100.65     LegendNANA
04:00 -1.5 -3.5 86   LegendMM LegendMM LegendMM 100.61     LegendNANA
05:00 -1.2 -3.3 86   LegendMM LegendMM LegendMM 100.57     LegendNANA
06:00 -1.2 -3.5 84   LegendMM LegendMM LegendMM 100.60     LegendNANA
07:00 -1.0 -3.3 84   LegendMM LegendMM LegendMM 100.60     LegendNANA
08:00 -0.5 -3.0 83   LegendMM LegendMM LegendMM 100.61     LegendNANA
09:00 1.2 -1.1 85   LegendMM LegendMM LegendMM 100.61     LegendNANA
10:00 1.9 -0.9 82   LegendMM LegendMM LegendMM 100.56     LegendNANA
11:00 2.6 0.2 84   LegendMM LegendMM LegendMM 100.51     LegendNANA
12:00 3.2 0.1 80   LegendMM LegendMM LegendMM 100.40     LegendNANA
13:00 4.0 -2.3 63   LegendMM LegendMM LegendMM 100.35     LegendNANA
14:00 3.8 -1.1 70   LegendMM LegendMM LegendMM 100.33     LegendNANA
15:00 3.5 0.6 81   LegendMM LegendMM LegendMM 100.35     LegendNANA
16:00 3.6 0.7 81   LegendMM LegendMM LegendMM 100.34     LegendNANA
17:00 3.4 0.5 81   LegendMM LegendMM LegendMM 100.39     LegendNANA
18:00 3.3 1.4 87   LegendMM LegendMM LegendMM 100.44     LegendNANA
19:00 3.2 1.4 88   LegendMM LegendMM LegendMM 100.45     LegendNANA
20:00 2.9 1.4 90   LegendMM LegendMM LegendMM 100.42     LegendNANA
21:00 2.1 1.1 93   LegendMM LegendMM LegendMM 100.38     LegendNANA
22:00 2.1 1.2 94   LegendMM LegendMM LegendMM 100.37     LegendNANA
23:00 1.6 0.8 94   LegendMM LegendMM LegendMM 100.39     LegendNANA

Notes on Data Quality.

Legend

  • E = Estimated
  • M = Missing
  • NA = Not Available*
  • [empty] = Indicates an unobserved value
Date modified: